COSMOS 2522 (752)

Last updated on Mon Sep 14 2026 00:03:25 GMT+0000 (Coordinated Universal Time)

1 42939U 17055A 26256.34359135 .00000014 00000+0 00000+0 0 9992 2 42939 64.0799 188.8854 0009479 236.6147 123.2951 2.13101885 69854
UTC large
Height (km)
Speed (km/s)
/
Latitude / Longitude
Inclination (degrees)
Orbital Period (minutes)
Azimuth
Elevation
Range (km)
Doppler Factor

Next 0 passes for location: London (51.5072 / 0.1276)

No passes found over London.
COSMOS 2522 (752)